FW8733 Weather Reports


time (UTC)temp
F
wind
direction
speed
knots
gust
knots
rain 1hr
in
rain 24hr
in
rain mn
in
humidity
%
barometer
mb
20260904043955 81 150 4.3 5.2 0.00 0.00 0.00 82 1016.1
20260904043451 81 152 0.9 0.9 0.00 0.00 0.00 82 1016.2
20260904042946 81 195 2.6 4.3 0.00 0.00 0.00 82 1016.1
20260904042443 81 203 0.9 0.9 0.00 0.00 0.00 81 1016.1
20260904041937 81 207 3.5 5.2 0.00 0.00 0.00 81 1016.1
20260904041434 81 181 2.6 2.6 0.00 0.00 0.00 81 1016.2
20260904040930 82 174 1.7 1.7 0.00 0.00 0.00 81 1016.2
20260904040429 82 177 3.5 5.2 0.00 0.00 0.00 81 1016.0
20260904035925 82 234 1.7 1.7 0.00 0.00 0.00 80 1016.0
20260904035421 82 167 1.7 2.6 0.00 0.00 0.00 80 1015.9
20260904034920 82 147 5.2 6.1 0.00 0.00 0.00 80 1016.0
20260904034415 82 137 3.5 6.1 0.00 0.00 0.00 79 1015.8
20260904033911 82 190 2.6 4.3 0.00 0.00 0.00 79 1015.9
20260904033408 82 183 4.3 5.2 0.00 0.00 0.00 78 1016.0
20260904032903 82 200 3.5 4.3 0.00 0.00 0.00 78 1015.7
20260904032358 83 163 2.6 2.6 0.00 0.00 0.00 78 1015.7
20260904031852 83 169 5.2 6.1 0.00 0.00 0.00 77 1015.9
20260904031348 83 167 4.3 5.2 0.00 0.00 0.00 77 1015.9
20260904030844 83 206 2.6 5.2 0.00 0.00 0.00 76 1015.8
20260904030339 83 188 2.6 5.2 0.00 0.00 0.00 76 1015.8
20260904025835 83 128 5.2 6.1 0.00 0.00 0.00 75 1015.9
20260904025331 84 165 3.5 4.3 0.00 0.00 0.00 75 1015.6
20260904024830 84 167 3.5 5.2 0.00 0.00 0.00 74 1015.6
20260904024325 84 181 2.6 5.2 0.00 0.00 0.00 74 1015.6
20260904023822 84 203 4.3 5.2 0.00 0.00 0.00 73 1015.3
20260904023318 84 208 3.5 4.3 0.00 0.00 0.00 73 1015.2
20260904022816 84 136 4.3 5.2 0.00 0.00 0.00 72 1015.2
20260904022314 84 187 3.5 5.2 0.00 0.00 0.00 72 1015.2
20260904021810 85 167 4.3 6.1 0.00 0.00 0.00 72 1015.3
20260904021310 85 189 5.2 6.1 0.00 0.00 0.00 71 1015.2
20260904020805 85 199 1.7 1.7 0.00 0.00 0.00 71 1015.2
20260904020300 85 162 5.2 6.1 0.00 0.00 0.00 71 1014.9
20260904015758 85 201 2.6 4.3 0.00 0.00 0.00 71 1015.1
20260904015254 85 187 4.3 6.1 0.00 0.00 0.00 70 1014.9
20260904014752 85 177 1.7 1.7 0.00 0.00 0.00 70 1014.9
20260904014248 85 205 1.7 2.6 0.00 0.00 0.00 70 1015.0
20260904013744 86 193 3.5 4.3 0.00 0.00 0.00 69 1014.9
20260904013240 86 171 1.7 2.6 0.00 0.00 0.00 69 1014.6
20260904012736 86 191 3.5 4.3 0.00 0.00 0.00 69 1014.4
20260904012235 86 201 3.5 7.0 0.00 0.00 0.00 69 1014.3
20260904011734 86 200 3.5 6.1 0.00 0.00 0.00 68 1014.4
20260904011230 86 191 2.6 6.1 0.00 0.00 0.00 68 1014.4
20260904010725 87 198 4.3 5.2 0.00 0.00 0.00 68 1014.3
20260904010221 87 186 4.3 6.1 0.00 0.00 0.00 67 1014.3
20260904005716 87 156 6.1 8.7 0.00 0.00 0.00 67 1014.3
20260904005212 87 207 10.4 13.0 0.00 0.00 0.00 67 1014.4
20260904004712 87 147 3.5 4.3 0.00 0.00 0.00 67 1014.4
20260904004207 87 187 6.1 7.8 0.00 0.00 0.00 67 1014.3
20260904003702 88 211 0.0 0.9 0.00 0.00 0.00 67 1014.5
20260904003159 88 155 4.3 5.2 0.00 0.00 0.00 66 1014.4
20260904002654 88 152 3.5 4.3 0.00 0.00 0.00 66 1014.5
20260904002150 88 183 5.2 7.8 0.00 0.00 0.00 65 1014.4
20260904001645 89 174 5.2 6.1 0.00 0.00 0.00 64 1014.4
20260904001143 89 149 6.1 9.6 0.00 0.00 0.00 64 1014.2
20260904000639 89 203 3.5 5.2 0.00 0.00 0.00 64 1014.1
20260904000134 90 187 4.3 8.7 0.00 0.00 0.00 65 1014.1
20260903235634 90 120 7.0 9.6 0.00 0.00 0.00 64 1013.8
20260903235130 90 222 2.6 4.3 0.00 0.00 0.00 64 1014.0
20260903234624 90 159 2.6 5.2 0.00 0.00 0.00 64 1013.8
20260903234121 90 135 3.5 4.3 0.00 0.00 0.00 64 1013.8
20260903233617 90 147 3.5 4.3 0.00 0.00 0.00 65 1014.3
20260903233112 91 175 6.1 7.0 0.00 0.00 0.00 64 1014.1
20260903232607 92 212 4.3 7.0 0.00 0.00 0.00 62 1013.8
20260903232102 92 176 5.2 7.0 0.00 0.00 0.00 59 1013.9
20260903231556 93 195 6.1 7.0 0.00 0.00 0.00 55 1013.9
20260903231051 94 187 6.1 7.0 0.00 0.00 0.00 53 1013.7
20260903230547 94 221 1.7 2.6 0.00 0.00 0.00 53 1013.6
20260903230045 94 194 5.2 7.8 0.00 0.00 0.00 53 1013.3
20260903225543 94 158 7.0 8.7 0.00 0.00 0.00 53 1013.3
20260903225039 94 175 6.1 7.8 0.00 0.00 0.00 53 1013.5
20260903224530 94 180 2.6 4.3 0.00 0.00 0.00 53 1013.3
20260903224026 94 143 7.0 8.7 0.00 0.00 0.00 53 1013.4
20260903223525 95 131 7.8 11.3 0.00 0.00 0.00 53 1013.3
20260903223024 96 199 5.2 7.8 0.00 0.00 0.00 52 1013.2
20260903222519 96 136 7.8 8.7 0.00 0.00 0.00 51 1013.1
20260903222018 98 201 8.7 9.6 0.00 0.00 0.00 50 1012.9
20260903221513 99 197 4.3 5.2 0.00 0.00 0.00 48 1013.2
20260903221010 99 224 0.9 0.9 0.00 0.00 0.00 47 1013.0
20260903220504 99 175 6.1 7.8 0.00 0.00 0.00 47 1013.0
20260903220003 98 157 3.5 5.2 0.00 0.00 0.00 49 1013.1
20260903215459 98 169 2.6 5.2 0.00 0.00 0.00 49 1013.2
20260903214957 98 183 5.2 6.1 0.00 0.00 0.00 49 1013.1
20260903214453 97 202 5.2 6.1 0.00 0.00 0.00 50 1013.1
20260903213952 97 140 7.8 8.7 0.00 0.00 0.00 49 1013.3
20260903213448 98 150 1.7 2.6 0.00 0.00 0.00 49 1013.2
20260903212944 100 186 7.0 11.3 0.00 0.00 0.00 47 1013.4
20260903212440 100 216 4.3 5.2 0.00 0.00 0.00 45 1013.2
20260903211939 99 152 2.6 2.6 0.00 0.00 0.00 46 1013.4
20260903211435 100 207 3.5 6.1 0.00 0.00 0.00 45 1013.4
20260903210932 102 125 4.3 5.2 0.00 0.00 0.00 44 1013.4
20260903210431 101 160 2.6 4.3 0.00 0.00 0.00 43 1013.2
20260903205926 101 167 2.6 2.6 0.00 0.00 0.00 44 1013.5
20260903205426 100 131 3.5 5.2 0.00 0.00 0.00 46 1013.6
20260903204920 99 207 4.3 5.2 0.00 0.00 0.00 48 1013.8
20260903204417 98 194 3.5 4.3 0.00 0.00 0.00 47 1013.7
20260903203912 98 184 4.3 6.1 0.00 0.00 0.00 48 1013.7
20260903203408 98 172 2.6 4.3 0.00 0.00 0.00 47 1013.9
20260903202907 98 175 1.7 1.7 0.00 0.00 0.00 47 1013.8
20260903202404 100 193 4.3 6.1 0.00 0.00 0.00 45 1014.3
20260903201903 101 197 0.0 0.0 0.00 0.00 0.00 45 1014.0
20260903201359 101 169 4.3 5.2 0.00 0.00 0.00 45 1014.3
20260903200857 102 141 0.9 0.9 0.00 0.00 0.00 44 1014.1
20260903200352 101 211 0.9 1.7 0.00 0.00 0.00 45 1014.4
20260903195848 101 192 4.3 5.2 0.00 0.00 0.00 45 1014.5
20260903195344 101 194 2.6 2.6 0.00 0.00 0.00 46 1014.3
20260903194838 101 193 0.9 1.7 0.00 0.00 0.00 47 1014.4
20260903194334 100 141 3.5 4.3 0.00 0.00 0.00 46 1014.4
20260903193829 99 227 4.3 6.1 0.00 0.00 0.00 47 1014.5
20260903193326 100 194 2.6 2.6 0.00 0.00 0.00 47 1014.4
20260903192821 99 221 2.6 2.6 0.00 0.00 0.00 47 1014.6
20260903192316 98 205 1.7 1.7 0.00 0.00 0.00 49 1014.7
20260903191813 98 211 3.5 5.2 0.00 0.00 0.00 48 1015.0
20260903191308 100 170 3.5 5.2 0.00 0.00 0.00 47 1014.8
20260903190808 101 190 5.2 7.0 0.00 0.00 0.00 46 1015.1
20260903190303 100 190 0.9 2.6 0.00 0.00 0.00 47 1015.0
20260903185756 97 230 0.9 0.9 0.00 0.00 0.00 52 1015.1
20260903185256 99 240 3.5 5.2 0.00 0.00 0.00 49 1015.2
20260903184753 100 225 0.0 0.0 0.00 0.00 0.00 46 1015.3
20260903184249 100 132 0.9 1.7 0.00 0.00 0.00 45 1015.4
20260903183745 99 192 3.5 4.3 0.00 0.00 0.00 46 1015.4
20260903183244 99 144 3.5 5.2 0.00 0.00 0.00 46 1015.5
20260903182743 99 160 1.7 2.6 0.00 0.00 0.00 45 1015.7
20260903182238 99 277 2.6 4.3 0.00 0.00 0.00 48 1015.6
20260903181737 99 192 3.5 4.3 0.00 0.00 0.00 46 1015.7
20260903181232 98 212 3.5 4.3 0.00 0.00 0.00 47 1016.0
20260903180728 98 228 1.7 1.7 0.00 0.00 0.00 47 1015.9
20260903180226 98 213 0.9 1.7 0.00 0.00 0.00 47 1016.0
20260903175721 98 155 5.2 7.0 0.00 0.00 0.00 47 1016.2
20260903175215 98 242 0.9 0.9 0.00 0.00 0.00 50 1016.3
20260903174714 97 134 2.6 2.6 0.00 0.00 0.00 50 1015.9
20260903174210 98 130 4.3 5.2 0.00 0.00 0.00 48 1015.9
20260903173710 98 249 1.7 1.7 0.00 0.00 0.00 50 1016.3
20260903173206 98 193 1.7 1.7 0.00 0.00 0.00 49 1016.2
20260903172700 98 240 1.7 2.6 0.00 0.00 0.00 49 1016.3
20260903172155 98 232 2.6 4.3 0.00 0.00 0.00 50 1016.3
20260903171650 98 188 0.9 1.7 0.00 0.00 0.00 49 1016.6
20260903171147 97 227 0.9 0.9 0.00 0.00 0.00 54 1016.4
20260903170645 97 207 0.9 1.7 0.00 0.00 0.00 51 1016.5
20260903170141 98 122 1.7 4.3 0.00 0.00 0.00 49 1016.7
20260903165638 98 236 0.0 0.0 0.00 0.00 0.00 54 1016.5
20260903165133 97 114 0.0 0.9 0.00 0.00 0.00 53 1016.6
20260903164628 96 142 1.7 2.6 0.00 0.00 0.00 54 1016.6
20260903164124 96 245 0.0 0.0 0.00 0.00 0.00 55 1016.7
20260903163618 95 207 0.9 0.9 0.00 0.00 0.00 56 1017.0
20260903163115 95 139 4.3 5.2 0.00 0.00 0.00 56 1016.8
20260903162611 94 129 3.5 5.2 0.00 0.00 0.00 58 1017.0
20260903162107 94 181 6.1 7.0 0.00 0.00 0.00 57 1017.1
20260903161601 92 222 1.7 2.6 0.00 0.00 0.00 60 1017.0
20260903161057 93 199 1.7 1.7 0.00 0.00 0.00 58 1017.1
20260903160556 94 167 3.5 6.1 0.00 0.00 0.00 57 1016.7
20260903160051 94 172 0.9 1.7 0.00 0.00 0.00 58 1017.0
20260903155550 94 318 0.9 1.7 0.00 0.00 0.00 61 1017.0
20260903155045 92 169 5.2 7.0 0.00 0.00 0.00 61 1016.8
20260903154542 91 209 1.7 1.7 0.00 0.00 0.00 63 1017.0
20260903154038 91 235 3.5 5.2 0.00 0.00 0.00 64 1017.1
20260903153532 90 215 1.7 1.7 0.00 0.00 0.00 66 1017.2
20260903153028 91 179 1.7 2.6 0.00 0.00 0.00 65 1017.0
20260903152524 91 233 0.9 1.7 0.00 0.00 0.00 66 1017.2
20260903152021 91 236 0.9 0.9 0.00 0.00 0.00 65 1017.3
20260903151519 91 186 3.5 5.2 0.00 0.00 0.00 65 1017.2
20260903151015 90 176 0.9 0.9 0.00 0.00 0.00 69 1016.8
20260903150509 90 129 5.2 6.1 0.00 0.00 0.00 67 1016.8
20260903150004 90 201 0.9 0.9 0.00 0.00 0.00 68 1017.0
20260903145458 89 247 1.7 2.6 0.00 0.00 0.00 71 1017.0
20260903144954 89 186 3.5 5.2 0.00 0.00 0.00 71 1017.0
20260903144453 89 198 4.3 5.2 0.00 0.00 0.00 70 1017.0
20260903143949 88 203 1.7 1.7 0.00 0.00 0.00 73 1016.8
20260903143445 88 176 4.3 6.1 0.00 0.00 0.00 73 1017.1
20260903142940 87 194 2.6 2.6 0.00 0.00 0.00 74 1017.3
20260903142436 87 175 3.5 4.3 0.00 0.00 0.00 75 1017.3
20260903141932 87 172 2.6 2.6 0.00 0.00 0.00 76 1017.4
20260903141427 87 189 0.9 1.7 0.00 0.00 0.00 76 1017.1
20260903140923 87 236 4.3 7.0 0.00 0.00 0.00 76 1017.0
20260903140419 86 28 1.7 1.7 0.00 0.00 0.00 78 1017.1
20260903135913 85 198 1.7 2.6 0.00 0.00 0.00 79 1017.0
20260903135409 85 236 3.5 4.3 0.00 0.00 0.00 79 1017.1
20260903134908 85 203 6.1 7.0 0.00 0.00 0.00 80 1017.4
20260903134403 84 178 0.9 1.7 0.00 0.00 0.00 81 1017.3
20260903133901 84 213 1.7 4.3 0.00 0.00 0.00 81 1017.0
20260903133357 85 217 0.0 0.9 0.00 0.00 0.00 81 1017.0
20260903132857 84 223 0.0 0.9 0.00 0.00 0.00 83 1017.1
20260903132353 84 223 0.9 1.7 0.00 0.00 0.00 82 1017.2
20260903131853 84 178 2.6 2.6 0.00 0.00 0.00 83 1017.1
20260903131347 83 193 0.0 0.9 0.00 0.00 0.00 84 1017.1
20260903130846 82 190 1.7 2.6 0.00 0.00 0.00 85 1017.2
20260903130341 82 211 0.9 0.9 0.00 0.00 0.00 87 1017.1
20260903125840 81 217 0.0 0.0 0.00 0.00 0.00 88 1017.2
20260903125335 81 214 0.9 1.7 0.00 0.00 0.00 88 1017.2
20260903124834 81 217 0.0 0.0 0.00 0.00 0.00 89 1017.0
20260903124330 81 218 0.0 0.9 0.00 0.00 0.00 89 1017.1
20260903123828 80 219 0.0 0.0 0.00 0.00 0.00 89 1017.0
20260903123323 80 214 0.9 0.9 0.00 0.00 0.00 89 1016.8
20260903122821 80 221 0.0 0.0 0.00 0.00 0.00 90 1017.0
20260903122317 80 203 0.9 0.9 0.00 0.00 0.00 89 1016.7
20260903121815 80 218 1.7 2.6 0.00 0.00 0.00 89 1016.8
20260903121311 80 203 1.7 2.6 0.00 0.00 0.00 90 1016.8
20260903120807 80 215 1.7 1.7 0.00 0.00 0.00 89 1016.8
20260903120306 80 234 0.9 0.9 0.00 0.00 0.00 89 1016.6
20260903115804 80 218 0.9 0.9 0.00 0.00 0.00 89 1016.7
20260903115300 80 212 2.6 2.6 0.00 0.00 0.00 90 1016.5
20260903114759 80 212 0.9 0.9 0.00 0.00 0.00 90 1016.6
20260903114255 80 219 0.0 0.0 0.00 0.00 0.00 90 1016.6
20260903113750 80 203 0.9 0.9 0.00 0.00 0.00 91 1016.7
20260903113246 80 251 0.0 0.9 0.00 0.00 0.00 91 1016.4
20260903112742 80 220 0.0 0.0 0.00 0.00 0.00 91 1016.6
20260903112237 80 219 0.0 0.0 0.00 0.00 0.00 91 1016.4
20260903111736 80 220 0.0 0.0 0.00 0.00 0.00 91 1016.4
20260903111231 80 214 0.0 0.9 0.00 0.00 0.00 92 1016.3
20260903110727 80 209 0.9 0.9 0.00 0.00 0.00 91 1016.3
20260903110223 80 210 0.9 0.9 0.00 0.00 0.00 91 1016.3
20260903105722 80 205 0.0 0.9 0.00 0.00 0.00 92 1016.3
20260903105218 80 200 0.9 1.7 0.00 0.00 0.00 92 1016.2
20260903104717 80 213 0.0 0.0 0.00 0.00 0.00 92 1016.3
20260903104213 80 179 1.7 2.6 0.00 0.00 0.00 92 1016.2
20260903103708 79 180 1.7 2.6 0.00 0.00 0.00 92 1016.3
20260903103205 79 204 2.6 2.6 0.00 0.00 0.00 92 1016.0
20260903102700 79 196 0.9 1.7 0.00 0.00 0.00 92 1016.2
20260903102200 79 228 0.0 0.0 0.00 0.00 0.00 92 1016.4
20260903101658 79 197 0.0 0.0 0.00 0.00 0.00 92 1016.3
20260903101154 79 210 0.9 0.9 0.00 0.00 0.00 92 1016.2
20260903100654 79 219 0.0 0.0 0.00 0.00 0.00 91 1016.2
20260903100154 79 193 0.0 0.0 0.00 0.00 0.00 91 1016.0
20260903095651 79 199 0.0 0.9 0.00 0.00 0.00 91 1016.2
20260903095146 79 217 0.9 0.9 0.00 0.00 0.00 91 1016.3
20260903094642 79 218 0.0 0.0 0.00 0.00 0.00 91 1016.3
20260903094136 80 209 0.0 0.9 0.00 0.00 0.00 91 1016.3
20260903093632 80 171 1.7 1.7 0.00 0.00 0.00 90 1016.5
20260903093127 80 180 0.0 0.0 0.00 0.00 0.00 90 1016.5
20260903092627 80 218 0.0 0.0 0.00 0.00 0.00 90 1016.4
20260903092122 80 185 3.5 4.3 0.00 0.00 0.00 90 1016.3
20260903091620 80 241 0.0 0.0 0.00 0.00 0.00 90 1016.4
20260903091114 80 201 1.7 1.7 0.00 0.00 0.00 89 1016.4
20260903090611 80 198 0.9 0.9 0.00 0.00 0.00 89 1016.5
20260903090109 80 168 2.6 2.6 0.00 0.00 0.00 89 1016.4
20260903085608 80 210 0.9 0.9 0.00 0.00 0.00 89 1016.4
20260903085104 80 208 0.9 1.7 0.00 0.00 0.00 89 1016.5
20260903084601 80 216 0.0 0.9 0.00 0.00 0.00 89 1016.5
20260903084056 80 208 0.0 0.9 0.00 0.00 0.00 89 1016.3
20260903083552 80 199 0.9 1.7 0.00 0.00 0.00 89 1016.5
20260903083052 80 208 0.0 0.9 0.00 0.00 0.00 88 1016.7
20260903082546 80 207 0.9 1.7 0.00 0.00 0.00 88 1016.6
20260903082042 80 229 0.0 0.9 0.00 0.00 0.00 88 1016.5
20260903081537 80 207 1.7 1.7 0.00 0.00 0.00 87 1016.6
20260903081033 80 243 2.6 2.6 0.00 0.00 0.00 87 1016.5
20260903080529 81 228 1.7 1.7 0.00 0.00 0.00 87 1016.6
20260903080026 81 208 2.6 2.6 0.00 0.00 0.00 86 1016.4
20260903075520 81 168 2.6 2.6 0.00 0.00 0.00 86 1016.5
20260903075015 81 154 3.5 5.2 0.00 0.00 0.00 86 1016.5
20260903074515 81 219 1.7 4.3 0.00 0.00 0.00 85 1016.5
20260903074009 81 197 0.9 1.7 0.00 0.00 0.00 85 1016.6
20260903073504 81 203 2.6 2.6 0.00 0.00 0.00 85 1016.8
20260903073000 81 168 3.5 4.3 0.00 0.00 0.00 84 1016.8
20260903072456 81 152 3.5 4.3 0.00 0.00 0.00 84 1016.6
20260903071953 81 182 1.7 1.7 0.00 0.00 0.00 83 1016.4
20260903071448 82 221 1.7 1.7 0.00 0.00 0.00 83 1016.5
20260903070944 82 215 1.7 2.6 0.00 0.00 0.00 82 1016.6
20260903070444 82 197 1.7 2.6 0.00 0.00 0.00 81 1016.6
20260903065944 82 181 2.6 2.6 0.00 0.00 0.00 80 1016.6
20260903065439 82 206 1.7 1.7 0.00 0.00 0.00 79 1016.6
20260903064938 82 218 1.7 1.7 0.00 0.00 0.00 79 1016.8
20260903064433 82 184 2.6 2.6 0.00 0.00 0.00 78 1017.2
20260903063929 82 212 1.7 2.6 0.00 0.00 0.00 78 1017.1
20260903063424 82 212 1.7 1.7 0.00 0.00 0.00 77 1016.7
20260903062920 83 189 0.9 0.9 0.00 0.00 0.00 76 1017.2
20260903062420 83 192 2.6 2.6 0.00 0.00 0.00 76 1016.7
20260903061915 83 185 0.9 0.9 0.00 0.00 0.00 75 1017.1
20260903061415 83 146 2.6 5.2 0.00 0.00 0.00 74 1017.1
20260903060910 84 218 0.0 0.9 0.00 0.00 0.00 74 1016.7
20260903060404 84 174 2.6 2.6 0.00 0.00 0.00 73 1017.1
20260903055902 84 167 4.3 6.1 0.00 0.00 0.00 73 1016.6
20260903055400 84 211 3.5 4.3 0.00 0.00 0.00 72 1016.6
20260903054856 84 156 1.7 4.3 0.00 0.00 0.00 72 1016.8
20260903054356 84 191 1.7 1.7 0.00 0.00 0.00 72 1016.4
20260903053852 84 178 3.5 4.3 0.00 0.00 0.00 71 1016.5
20260903053347 84 162 3.5 7.0 0.00 0.00 0.00 71 1016.7
20260903052843 85 147 3.5 7.0 0.00 0.00 0.00 70 1016.6
20260903052338 85 168 4.3 5.2 0.00 0.00 0.00 70 1016.6
20260903051834 85 218 2.6 4.3 0.00 0.00 0.00 69 1016.6
20260903051329 85 209 3.5 5.2 0.00 0.00 0.00 69 1016.5
20260903050825 85 182 5.2 6.1 0.00 0.00 0.00 69 1016.4
20260903050324 85 133 2.6 2.6 0.00 0.00 0.00 69 1016.2
20260903045819 85 180 3.5 4.3 0.00 0.00 0.00 69 1016.5
20260903045314 85 220 4.3 5.2 0.00 0.00 0.00 69 1016.4
20260903044811 86 192 2.6 4.3 0.00 0.00 0.00 69 1016.4